This demonstration page uses our WeatherBlox Daily Observations layout. Learn more.

38.88101, -77.10428

Hourly Observations for January 6, 2016

Temp ( °F °C ) Dew Point ( °F °C ) Humidity (%) Winds ( mph kmh ) Pressure ( in mb ) Visibility ( mi km ) Precip ( " mm )
12:52 am 00:52 Clear 25 -4 14 -10 63 63 Calm 30.65 1038 10 16.09344 0 0
1:52 am 01:52 Clear 21 -6 12 -11 68 68 WSW 3 6 30.65 1038 10 16.09344 0 0
2:52 am 02:52 Clear 21 -6 12 -11 68 68 WSW 5 7 30.65 1038 10 16.09344 0 0
3:52 am 03:52 Clear 21 -6 14 -10 74 74 SW 3 6 30.62 1037 10 16.09344 0 0
4:52 am 04:52 Clear 21 -6 12 -11 68 68 Calm 30.62 1037 10 16.09344 0 0
5:52 am 05:52 Clear 21 -6 14 -10 74 74 WSW 3 6 30.62 1037 10 16.09344 0 0
6:52 am 06:52 Mostly Cloudy 21 -6 12 -11 68 68 N 3 6 30.62 1037 10 16.09344 0 0
7:52 am 07:52 Mostly Cloudy 23 -5 16 -9 74 74 NE 5 7 30.62 1037 10 16.09344 0 0
8:52 am 08:52 Partly Cloudy 27 -3 18 -8 69 69 ENE 3 6 30.62 1037 10 16.09344 0 0
9:52 am 09:52 Mostly Sunny 28 -2 18 -8 64 64 SSE 3 6 30.62 1037 10 16.09344 0 0
10:52 am 10:52 Sunny 32 0 12 -11 44 44 SSE 7 11 30.62 1037 10 16.09344 0 0
11:52 am 11:52 Sunny 34 1 9 -13 35 35 S 7 11 30.56 1035 10 16.09344 0 0
12:52 pm 12:52 Sunny 37 3 3 -16 23 23 S 7 11 30.53 1034 10 16.09344 0 0
1:52 pm 13:52 Sunny 37 3 9 -13 30 30 S 7 11 30.5 1033 10 16.09344 0 0
2:52 pm 14:52 Mostly Sunny 39 4 12 -11 33 33 S 6 9 30.5 1033 10 16.09344 0 0
3:52 pm 15:52 Mostly Sunny 39 4 12 -11 33 33 S 5 7 30.48 1032 10 16.09344 0 0
4:52 pm 16:52 Mostly Sunny 37 3 10 -12 33 33 SSW 3 6 30.45 1031 10 16.09344 0 0
5:52 pm 17:52 Mostly Clear 37 3 16 -9 41 41 SSW 3 6 30.45 1031 10 16.09344 0 0
6:52 pm 18:52 Mostly Clear 36 2 19 -7 52 52 S 5 7 30.48 1032 10 16.09344 0 0
7:39 pm 19:39 Mostly Cloudy 36 2 19 -7 52 52 Calm 30.48 1032 10 16.09344 0 0
7:52 pm 19:52 Mostly Cloudy 36 2 19 -7 52 52 ESE 3 6 30.48 1032 10 16.09344 0 0
8:52 pm 20:52 Mostly Cloudy 36 2 19 -7 52 52 Calm 30.45 1031 10 16.09344 0 0
9:52 pm 21:52 Mostly Cloudy 36 2 23 -5 60 60 ESE 3 6 30.45 1031 10 16.09344 0 0
10:52 pm 22:52 Partly Cloudy 37 3 21 -6 52 52 ESE 3 6 30.45 1031 10 16.09344 0 0
11:52 pm 23:52 Cloudy 36 2 23 -5 60 60 Calm 30.42 1030 10 16.09344 0 0

Powered by AerisWeather